Location: ?????
(32.7281°N, 34.9563°E)
Time: 12:22:16
(UTC+00:00)

Cosmos 1689 Rocket - Pass Details

Date: 29 October 2020
Orbit: 360 x 375 km, 97.5° (Epoch: 27 November)

Event Time Altitude Azimuth Distance (km) Brightness Sun altitude
Rises 15:16:41 0° 23° (NNE) 2,196 5.6 -5.9°
Reaches altitude 10° 15:18:46 10° 34° (NE) 1,345 4.4 -6.3°
Maximum altitude 15:21:20 30° 99° (E) 682 2.8 -6.9°
Drops below altitude 10° 15:23:53 10° 163° (SSE) 1,337 4.8 -7.4°
Sets 15:25:56 0° 174° (S) 2,180 6.0 -7.8°
